TimeEDT,TemperatureF,Dew PointF,Humidity,Sea Level PressureIn,VisibilityMPH,Wind Direction,Wind SpeedMPH,Gust SpeedMPH,PrecipitationIn,Events,Conditions,WindDirDegrees,DateUTC
12:15 AM,70.9,68.5,92,29.98,10.0,SSE,6.9,-,N/A,,Clear,160,2013-05-23 04:15:00
12:35 AM,70.5,68.5,93,29.98,10.0,SSE,6.9,-,N/A,,Clear,160,2013-05-23 04:35:00
12:55 AM,70.3,68.9,95,29.98,10.0,SSE,8.1,-,N/A,,Scattered Clouds,160,2013-05-23 04:55:00
1:15 AM,70.3,68.9,95,29.98,10.0,South,5.8,-,N/A,,Overcast,190,2013-05-23 05:15:00
1:35 AM,70.3,68.9,95,29.98,10.0,South,5.8,-,N/A,,Overcast,190,2013-05-23 05:35:00
1:55 AM,70.0,68.9,96,29.97,10.0,South,4.6,-,N/A,,Overcast,180,2013-05-23 05:55:00
2:15 AM,69.4,68.5,97,29.97,10.0,South,4.6,-,N/A,,Overcast,170,2013-05-23 06:15:00
2:35 AM,69.1,68.5,98,29.97,10.0,South,3.5,-,N/A,,Overcast,170,2013-05-23 06:35:00
2:55 AM,69.1,68.5,98,29.97,10.0,South,3.5,-,N/A,,Overcast,170,2013-05-23 06:55:00
3:15 AM,69.3,68.9,99,29.97,10.0,SSE,4.6,-,N/A,,Overcast,160,2013-05-23 07:15:00
3:35 AM,69.3,68.9,99,29.96,10.0,SSE,3.5,-,N/A,,Overcast,150,2013-05-23 07:35:00
3:55 AM,69.1,68.9,99,29.96,10.0,SSE,3.5,-,N/A,,Overcast,160,2013-05-23 07:55:00
4:15 AM,69.3,68.9,99,29.96,10.0,Calm,Calm,-,N/A,,Overcast,0,2013-05-23 08:15:00
4:35 AM,69.4,69.1,99,29.96,10.0,Calm,Calm,-,N/A,,Overcast,0,2013-05-23 08:35:00
4:55 AM,69.4,69.1,99,29.96,10.0,Calm,Calm,-,N/A,,Overcast,0,2013-05-23 08:55:00
5:15 AM,69.8,69.3,98,29.96,10.0,South,4.6,-,N/A,,Overcast,190,2013-05-23 09:15:00
5:35 AM,69.6,69.3,99,29.97,7.0,South,3.5,-,N/A,,Overcast,190,2013-05-23 09:35:00
5:55 AM,69.8,69.3,98,29.97,7.0,South,3.5,-,N/A,,Overcast,190,2013-05-23 09:55:00
6:15 AM,69.8,69.4,99,29.97,7.0,Calm,Calm,-,N/A,,Overcast,0,2013-05-23 10:15:00
6:35 AM,69.3,69.1,99,29.97,5.0,Calm,Calm,-,N/A,,Overcast,0,2013-05-23 10:35:00
6:55 AM,69.3,69.1,99,29.97,4.0,SSE,5.8,-,N/A,,Mostly Cloudy,150,2013-05-23 10:55:00
7:15 AM,69.6,69.6,100,29.97,5.0,South,3.5,-,N/A,,Overcast,190,2013-05-23 11:15:00
7:35 AM,70.5,69.6,97,29.96,10.0,South,5.8,-,N/A,,Scattered Clouds,190,2013-05-23 11:35:00
7:55 AM,71.4,69.4,93,29.96,10.0,South,8.1,-,N/A,,Clear,190,2013-05-23 11:55:00
8:15 AM,72.5,68.5,87,29.95,10.0,SSW,8.1,-,N/A,,Scattered Clouds,200,2013-05-23 12:15:00
8:35 AM,73.4,67.8,83,29.95,10.0,South,6.9,-,N/A,,Scattered Clouds,190,2013-05-23 12:35:00
8:55 AM,74.3,67.8,80,29.95,10.0,SSW,8.1,-,N/A,,Scattered Clouds,200,2013-05-23 12:55:00
9:15 AM,75.4,67.3,76,29.94,10.0,SSW,8.1,-,N/A,,Mostly Cloudy,200,2013-05-23 13:15:00
9:35 AM,76.8,66.7,71,29.94,10.0,SSW,6.9,-,N/A,,Scattered Clouds,200,2013-05-23 13:35:00
9:55 AM,77.0,65.8,68,29.94,10.0,SW,4.6,-,N/A,,Scattered Clouds,230,2013-05-23 13:55:00
10:15 AM,77.7,65.3,65,29.94,10.0,SSW,6.9,-,N/A,,Scattered Clouds,200,2013-05-23 14:15:00
10:35 AM,79.2,66.6,65,29.94,10.0,South,6.9,-,N/A,,Mostly Cloudy,180,2013-05-23 14:35:00
10:55 AM,77.5,65.5,66,29.93,10.0,Calm,Calm,-,N/A,,Mostly Cloudy,0,2013-05-23 14:55:00
11:15 AM,79.2,65.7,63,29.93,10.0,SSE,5.8,-,N/A,,Scattered Clouds,160,2013-05-23 15:15:00
11:35 AM,79.9,66.0,62,29.93,10.0,SSE,4.6,-,N/A,,Mostly Cloudy,160,2013-05-23 15:35:00
11:55 AM,79.9,66.2,63,29.93,10.0,SSE,3.5,-,N/A,,Mostly Cloudy,150,2013-05-23 15:55:00
12:15 PM,79.7,66.2,63,29.93,10.0,ESE,3.5,-,N/A,,Overcast,110,2013-05-23 16:15:00
12:35 PM,81.3,65.8,59,29.92,10.0,SSE,5.8,-,N/A,,Mostly Cloudy,150,2013-05-23 16:35:00
12:55 PM,81.5,64.8,57,29.91,10.0,SSW,5.8,-,N/A,,Mostly Cloudy,200,2013-05-23 16:55:00
1:15 PM,81.3,64.2,56,29.90,10.0,South,5.8,-,N/A,,Overcast,190,2013-05-23 17:15:00
1:35 PM,79.3,67.1,66,29.89,10.0,North,3.5,-,N/A,Rain,Light Rain,360,2013-05-23 17:35:00
1:55 PM,74.8,67.6,78,29.89,10.0,NW,4.6,-,0.01,Rain,Light Rain,310,2013-05-23 17:55:00
2:15 PM,70.2,65.8,86,29.88,1.5,NNW,4.6,19.6,0.35,Rain,Light Rain,340,2013-05-23 18:15:00
2:35 PM,69.1,64.2,84,29.90,0.2,North,5.8,19.6,1.59,Rain,Heavy Rain,10,2013-05-23 18:35:00
2:55 PM,67.1,64.2,90,29.89,1.8,SSW,3.5,-,1.99,Rain,Heavy Rain,210,2013-05-23 18:55:00
3:15 PM,67.5,66.0,95,29.88,7.0,Calm,Calm,-,0.07,Rain,Light Rain,0,2013-05-23 19:15:00
3:35 PM,67.6,66.6,96,29.89,10.0,Calm,Calm,-,0.07,,Light Drizzle,0,2013-05-23 19:35:00
3:55 PM,68.0,67.3,98,29.88,10.0,ESE,4.6,-,0.07,Rain,Light Rain,110,2013-05-23 19:55:00
4:15 PM,68.7,67.8,97,29.88,10.0,Calm,Calm,-,N/A,,Mostly Cloudy,0,2013-05-23 20:15:00
4:35 PM,68.9,68.2,98,29.85,10.0,Calm,Calm,-,N/A,,Mostly Cloudy,0,2013-05-23 20:35:00
4:55 PM,69.6,68.5,96,29.86,10.0,SSW,3.5,-,N/A,,Mostly Cloudy,200,2013-05-23 20:55:00
5:15 PM,69.8,69.1,98,29.87,10.0,SSE,3.5,-,N/A,,Scattered Clouds,160,2013-05-23 21:15:00
5:35 PM,70.5,69.6,97,29.86,10.0,Calm,Calm,-,N/A,,Clear,0,2013-05-23 21:35:00
5:55 PM,70.7,69.6,96,29.86,10.0,SSW,3.5,-,N/A,,Scattered Clouds,210,2013-05-23 21:55:00
6:15 PM,71.2,70.0,96,29.86,10.0,South,5.8,-,N/A,,Mostly Cloudy,180,2013-05-23 22:15:00
6:35 PM,71.6,70.7,97,29.86,10.0,South,4.6,-,N/A,,Mostly Cloudy,170,2013-05-23 22:35:00
6:55 PM,71.1,70.2,97,29.86,10.0,SSE,4.6,-,N/A,,Overcast,160,2013-05-23 22:55:00
7:15 PM,71.1,70.3,98,29.85,7.0,SE,4.6,-,N/A,,Overcast,140,2013-05-23 23:15:00
7:35 PM,71.4,70.2,96,29.85,10.0,SSE,4.6,-,N/A,,Mostly Cloudy,160,2013-05-23 23:35:00
7:55 PM,70.9,69.6,96,29.85,10.0,SSE,4.6,-,N/A,,Scattered Clouds,150,2013-05-23 23:55:00
8:15 PM,70.5,69.8,98,29.86,10.0,SSE,4.6,-,N/A,,Mostly Cloudy,150,2013-05-24 00:15:00
8:35 PM,70.0,69.4,98,29.85,7.0,SE,4.6,-,N/A,,Overcast,140,2013-05-24 00:35:00
8:55 PM,69.8,69.8,100,29.86,7.0,SSE,4.6,-,N/A,,Overcast,160,2013-05-24 00:55:00
9:15 PM,70.2,69.8,99,29.86,7.0,South,4.6,-,N/A,,Overcast,170,2013-05-24 01:15:00
9:35 PM,69.8,69.6,99,29.86,7.0,South,4.6,-,N/A,,Mostly Cloudy,180,2013-05-24 01:35:00
9:55 PM,69.4,69.1,99,29.86,7.0,SSE,4.6,-,N/A,,Mostly Cloudy,160,2013-05-24 01:55:00
10:15 PM,69.3,69.1,99,29.86,7.0,Calm,Calm,-,N/A,,Scattered Clouds,0,2013-05-24 02:15:00
10:35 PM,68.9,68.9,100,29.87,7.0,Calm,Calm,-,N/A,,Mostly Cloudy,0,2013-05-24 02:35:00
10:55 PM,68.9,68.9,100,29.87,7.0,Calm,Calm,-,N/A,,Mostly Cloudy,0,2013-05-24 02:55:00
11:15 PM,68.5,68.5,100,29.87,5.0,Calm,Calm,-,N/A,,Overcast,0,2013-05-24 03:15:00
11:35 PM,68.2,68.2,100,29.86,5.0,Calm,Calm,-,N/A,,Overcast,0,2013-05-24 03:35:00
11:55 PM,68.4,68.4,100,29.86,5.0,Calm,Calm,-,N/A,,Overcast,0,2013-05-24 03:55:00